EW0420 Weather Reports


time (UTC)temp
F
wind
direction
speed
knots
gust
knots
rain 1hr
in
rain 24hr
in
rain mn
in
humidity
%
barometer
mb
20260504223345 65 134 6.1 12.2 0.00 0.00 0.00 48 1012.0
20260504222842 65 179 6.1 13.9 0.00 0.00 0.00 48 1012.1
20260504222339 65 177 3.5 6.1 0.00 0.00 0.00 48 1012.2
20260504221837 65 132 4.3 7.0 0.00 0.00 0.00 48 1012.3
20260504221333 65 145 6.1 13.0 0.00 0.00 0.00 47 1012.4
20260504220831 65 145 4.3 11.3 0.00 0.00 0.00 47 1012.3
20260504220327 66 98 6.1 8.7 0.00 0.00 0.00 45 1012.0
20260504215825 66 141 7.8 9.6 0.00 0.00 0.00 45 1012.0
20260504215321 66 153 5.2 9.6 0.00 0.00 0.00 45 1011.8
20260504214817 66 143 4.3 9.6 0.00 0.00 0.00 44 1012.1
20260504214314 67 161 11.3 15.6 0.00 0.00 0.00 43 1012.0
20260504213811 67 150 6.1 7.8 0.00 0.00 0.00 43 1011.9
20260504213307 67 171 7.8 13.9 0.00 0.00 0.00 42 1011.9
20260504212804 67 162 4.3 8.7 0.00 0.00 0.00 41 1011.8
20260504212300 68 157 4.3 6.1 0.00 0.00 0.00 42 1011.6
20260504211758 69 152 4.3 12.2 0.00 0.00 0.00 40 1011.8
20260504211254 70 143 6.1 8.7 0.00 0.00 0.00 38 1011.6
20260504210751 69 141 8.7 11.3 0.00 0.00 0.00 36 1011.7
20260504210249 68 127 4.3 7.8 0.00 0.00 0.00 38 1012.0
20260504205746 69 143 10.4 13.0 0.00 0.00 0.00 36 1012.0
20260504205243 69 158 7.8 11.3 0.00 0.00 0.00 36 1011.9
20260504204741 69 174 7.0 13.9 0.00 0.00 0.00 36 1011.6
20260504204239 70 153 6.1 12.2 0.00 0.00 0.00 36 1011.7
20260504203738 69 152 2.6 9.6 0.00 0.00 0.00 37 1011.8
20260504203235 70 172 5.2 11.3 0.00 0.00 0.00 37 1011.7
20260504202735 69 144 9.6 13.9 0.00 0.00 0.00 36 1011.9
20260504202233 68 177 6.1 8.7 0.00 0.00 0.00 39 1012.1
20260504201730 68 158 2.6 7.8 0.00 0.00 0.00 38 1012.0
20260504201227 69 195 8.7 11.3 0.00 0.00 0.00 35 1012.2
20260504200724 69 151 4.3 11.3 0.00 0.00 0.00 36 1012.1
20260504200220 69 196 3.5 7.0 0.00 0.00 0.00 36 1012.2
20260504195717 70 169 4.3 8.7 0.00 0.00 0.00 37 1011.9
20260504195213 69 165 5.2 12.2 0.00 0.00 0.00 37 1012.2
20260504194710 68 139 6.1 9.6 0.00 0.00 0.00 37 1012.0
20260504194206 71 156 7.0 7.8 0.00 0.00 0.00 36 1012.0
20260504193703 71 172 5.2 6.1 0.00 0.00 0.00 34 1012.0
20260504193200 70 177 6.1 9.6 0.00 0.00 0.00 36 1012.0
20260504192659 69 154 7.0 9.6 0.00 0.00 0.00 36 1012.2
20260504192156 69 121 1.7 8.7 0.00 0.00 0.00 37 1012.2
20260504191654 68 166 7.8 13.9 0.00 0.00 0.00 35 1012.2
20260504191150 70 168 8.7 11.3 0.00 0.00 0.00 34 1012.2
20260504190646 70 169 2.6 7.0 0.00 0.00 0.00 34 1012.2
20260504190143 69 169 7.8 11.3 0.00 0.00 0.00 34 1012.5
20260504185639 69 145 6.1 13.0 0.00 0.00 0.00 36 1012.4
20260504185136 69 177 9.6 13.9 0.00 0.00 0.00 34 1012.1
20260504184631 70 123 4.3 9.6 0.00 0.00 0.00 34 1012.4
20260504184127 69 148 3.5 7.8 0.00 0.00 0.00 34 1012.5
20260504183624 69 155 12.2 14.8 0.00 0.00 0.00 33 1012.3
20260504183122 69 125 5.2 12.2 0.00 0.00 0.00 34 1012.5
20260504182620 68 121 7.8 11.3 0.00 0.00 0.00 33 1012.8
20260504182117 68 164 7.0 18.2 0.00 0.00 0.00 36 1012.8
20260504181614 68 159 8.7 15.6 0.00 0.00 0.00 34 1012.5
20260504181111 68 82 5.2 11.3 0.00 0.00 0.00 36 1012.7
20260504180610 68 176 13.0 17.4 0.00 0.00 0.00 33 1012.9
20260504180109 68 164 6.1 9.6 0.00 0.00 0.00 35 1012.9
20260504175606 69 165 5.2 8.7 0.00 0.00 0.00 35 1012.8
20260504175102 68 176 7.8 11.3 0.00 0.00 0.00 34 1012.9
20260504174601 68 198 11.3 14.8 0.00 0.00 0.00 34 1013.1
20260504174057 69 167 10.4 18.2 0.00 0.00 0.00 33 1012.9
20260504173554 68 195 7.8 13.9 0.00 0.00 0.00 33 1013.1
20260504173052 67 159 6.1 15.6 0.00 0.00 0.00 35 1012.9
20260504172547 67 181 9.6 12.2 0.00 0.00 0.00 35 1013.1
20260504172044 67 168 4.3 9.6 0.00 0.00 0.00 35 1013.0
20260504171541 67 180 17.4 22.6 0.00 0.00 0.00 34 1013.3
20260504171038 67 190 13.0 22.6 0.00 0.00 0.00 34 1013.6
20260504170534 68 185 8.7 14.8 0.00 0.00 0.00 35 1013.4
20260504150918 63 159 9.6 17.4 0.00 0.00 0.00 40 1014.5
20260504150414 62 151 5.2 21.7 0.00 0.00 0.00 40 1014.3
20260504140841 61 143 10.4 20.0 0.00 0.00 0.00 43 1015.0
20260504140337 61 167 6.1 12.2 0.00 0.00 0.00 43 1015.0
20260504130806 59 135 2.6 5.2 0.00 0.00 0.00 48 1015.3
20260504130302 58 152 7.0 8.7 0.00 0.00 0.00 46 1015.7
20260504120225 49 130 1.7 1.7 0.00 0.00 0.00 65 1015.9
20260504110653 42 139 1.7 1.7 0.00 0.00 0.00 80 1016.4
20260504110149 41 128 0.9 1.7 0.00 0.00 0.00 83 1016.3
20260504100615 36 115 0.0 0.0 0.00 0.00 0.00 94 1016.0
20260504100113 35 114 0.0 0.0 0.00 0.00 0.00 94 1015.8
20260504081506 39 113 0.0 0.0 0.00 0.00 0.00 86 1015.4
20260504081000 39 113 0.0 0.0 0.00 0.00 0.00 85 1015.4
20260504080457 39 113 0.0 0.0 0.00 0.00 0.00 83 1015.4
20260504050259 37 116 0.9 0.9 0.00 0.00 0.00 87 1015.3
20260504045757 37 126 0.9 0.9 0.00 0.00 0.00 90 1015.3
20260504045256 37 120 0.9 0.9 0.00 0.00 0.00 91 1015.2
20260504044754 37 116 0.9 0.9 0.00 0.00 0.00 89 1015.2
20260504044252 37 119 0.0 0.9 0.00 0.00 0.00 89 1015.2
20260504043748 37 119 0.9 0.9 0.00 0.00 0.00 89 1015.6
20260504043245 37 119 0.9 0.9 0.00 0.00 0.00 88 1015.4
20260504042743 37 116 0.0 0.0 0.00 0.00 0.00 90 1015.3
20260504042239 38 117 0.0 0.9 0.00 0.00 0.00 90 1015.1
20260504041736 38 118 0.9 0.9 0.00 0.00 0.00 89 1015.4
20260504041232 38 115 0.0 0.0 0.00 0.00 0.00 89 1015.1
20260504040728 37 115 0.0 0.0 0.00 0.00 0.00 89 1015.0
20260504040226 37 115 0.0 0.0 0.00 0.00 0.00 91 1015.1
20260504035722 37 117 0.0 1.7 0.00 0.00 0.00 91 1015.2
20260504035219 37 115 0.0 0.0 0.00 0.00 0.00 91 1014.9
20260504034716 37 116 0.0 0.0 0.00 0.00 0.00 89 1014.9
20260504034214 37 120 0.9 1.7 0.00 0.00 0.00 90 1015.1
20260504033711 36 126 0.9 1.7 0.00 0.00 0.00 91 1014.9
20260504033208 36 119 0.9 1.7 0.00 0.00 0.00 90 1015.0
20260504032705 36 119 0.9 0.9 0.00 0.00 0.00 91 1014.9
20260504032202 36 111 0.9 0.9 0.00 0.00 0.00 92 1014.6
20260504031659 37 110 0.0 0.9 0.00 0.00 0.00 93 1014.8
20260504031155 36 110 0.0 0.0 0.00 0.00 0.00 92 1014.8
20260504030652 37 111 0.0 0.9 0.00 0.00 0.00 92 1015.0
20260504030149 37 107 0.9 0.9 0.00 0.00 0.00 92 1014.8
20260504025646 37 111 0.0 0.0 0.00 0.00 0.00 92 1014.9
20260504025142 37 111 0.0 0.0 0.00 0.00 0.00 92 1014.7
20260504024640 37 110 0.0 0.0 0.00 0.00 0.00 90 1014.8
20260504024136 37 108 0.0 0.0 0.00 0.00 0.00 89 1014.6
20260504023633 37 107 0.0 0.9 0.00 0.00 0.00 88 1014.5
20260504023129 38 113 0.0 0.9 0.00 0.00 0.00 88 1014.5
20260504022626 38 112 0.0 0.0 0.00 0.00 0.00 87 1014.5
20260504022121 37 114 0.0 0.0 0.00 0.00 0.00 86 1014.8
20260504021620 38 113 0.0 0.9 0.00 0.00 0.00 85 1014.6
20260504021116 38 120 0.9 0.9 0.00 0.00 0.00 84 1014.4
20260504020613 37 119 0.0 0.0 0.00 0.00 0.00 85 1014.4
20260504020109 38 117 0.9 0.9 0.00 0.00 0.00 87 1014.4
20260504015606 38 114 0.0 0.9 0.00 0.00 0.00 85 1014.3
20260504015102 38 114 0.0 0.0 0.00 0.00 0.00 83 1014.3
20260504014558 38 114 0.0 0.0 0.00 0.00 0.00 80 1014.3
20260504014055 39 114 0.0 0.0 0.00 0.00 0.00 81 1014.4
20260504013553 39 114 0.0 0.9 0.00 0.00 0.00 80 1014.2
20260504013050 39 114 0.0 0.0 0.00 0.00 0.00 79 1014.2
20260504012547 39 114 0.0 0.0 0.00 0.00 0.00 80 1014.1
20260504012045 40 111 0.0 0.0 0.00 0.00 0.00 81 1014.0
20260504011541 40 112 0.0 0.0 0.00 0.00 0.00 76 1014.1
20260504011037 40 112 0.0 0.0 0.00 0.00 0.00 72 1014.0
20260504010533 40 112 0.0 0.0 0.00 0.00 0.00 74 1013.7
20260504010030 41 111 0.0 0.0 0.00 0.00 0.00 75 1013.6
20260504005526 41 111 0.0 0.0 0.00 0.00 0.00 71 1013.7
20260504005024 42 111 0.0 0.0 0.00 0.00 0.00 72 1013.7
20260504004522 42 110 0.0 0.0 0.00 0.00 0.00 66 1013.7
20260504004018 42 110 0.0 0.0 0.00 0.00 0.00 64 1013.6
20260504003515 43 112 0.0 0.0 0.00 0.00 0.00 63 1013.7
20260504003012 44 115 0.0 0.9 0.00 0.00 0.00 60 1013.5
20260504002509 44 115 0.0 1.7 0.00 0.00 0.00 59 1013.5
20260504002006 45 116 0.0 0.9 0.00 0.00 0.00 60 1013.1
20260504001503 46 116 0.0 0.0 0.00 0.00 0.00 61 1012.9
20260504000959 46 116 0.0 0.0 0.00 0.00 0.00 57 1013.0
20260504000457 47 108 0.0 0.9 0.00 0.00 0.00 54 1013.0
20260503235954 47 110 0.0 0.0 0.00 0.00 0.00 49 1013.0
20260503235452 48 107 0.0 0.0 0.00 0.00 0.00 48 1013.1
20260503234949 48 113 0.0 0.0 0.00 0.00 0.00 47 1012.9
20260503234446 48 83 0.9 1.7 0.00 0.00 0.00 48 1013.0
20260503233944 49 118 0.0 0.9 0.00 0.00 0.00 46 1013.0
20260503233440 49 121 0.0 0.9 0.00 0.00 0.00 46 1012.9
20260503232937 50 122 0.0 0.9 0.00 0.00 0.00 46 1012.6
20260503232434 50 142 0.9 6.1 0.00 0.00 0.00 46 1012.6
20260503231932 50 92 0.0 0.9 0.00 0.00 0.00 45 1012.7
20260503231429 50 141 1.7 1.7 0.00 0.00 0.00 45 1012.6
20260503230925 50 178 0.9 1.7 0.00 0.00 0.00 45 1012.5
20260503230422 51 193 0.9 5.2 0.00 0.00 0.00 44 1012.6
20260503225920 51 12 1.7 4.3 0.00 0.00 0.00 43 1012.8
20260503225416 51 127 0.9 4.3 0.00 0.00 0.00 44 1012.9
20260503224912 51 163 0.9 2.6 0.00 0.00 0.00 42 1012.7
20260503224409 51 90 2.6 6.1 0.00 0.00 0.00 43 1012.8
20260503223907 51 148 1.7 4.3 0.00 0.00 0.00 42 1012.7